TimePST,TemperatureF,Dew PointF,Humidity,Sea Level PressureIn,VisibilityMPH,Wind Direction,Wind SpeedMPH,Gust SpeedMPH,PrecipitationIn,Events,Conditions,WindDirDegrees,DateUTC
12:53 AM,42.1,16.0,35,30.11,10.0,NNW,5.8,-,N/A,,Clear,330,2011-12-08 08:53:00
1:53 AM,41.0,17.1,38,30.10,10.0,NNW,6.9,-,N/A,,Clear,330,2011-12-08 09:53:00
2:53 AM,39.9,17.1,40,30.10,10.0,NNW,6.9,-,N/A,,Clear,330,2011-12-08 10:53:00
3:53 AM,39.9,17.1,40,30.08,10.0,NNW,6.9,-,N/A,,Clear,330,2011-12-08 11:53:00
4:53 AM,39.9,17.1,40,30.09,10.0,NNW,6.9,-,N/A,,Clear,330,2011-12-08 12:53:00
5:53 AM,37.0,24.1,59,30.10,10.0,Calm,Calm,-,N/A,,Clear,0,2011-12-08 13:53:00
6:53 AM,37.4,19.4,48,30.11,10.0,North,8.1,-,N/A,,Clear,350,2011-12-08 14:53:00
7:53 AM,43.0,23.0,45,30.14,10.0,Calm,Calm,-,N/A,,Clear,0,2011-12-08 15:53:00
8:53 AM,52.0,19.9,28,30.15,10.0,Calm,Calm,-,N/A,,Clear,0,2011-12-08 16:53:00
9:53 AM,57.9,18.0,21,30.15,10.0,Calm,Calm,-,N/A,,Clear,0,2011-12-08 17:53:00
10:53 AM,61.0,12.9,15,30.13,10.0,SE,3.5,-,N/A,,Clear,130,2011-12-08 18:53:00
11:53 AM,63.0,14.0,15,30.10,10.0,ESE,3.5,-,N/A,,Clear,110,2011-12-08 19:53:00
1:53 PM,66.2,15.8,14,30.06,10.0,SE,6.9,-,N/A,,Clear,140,2011-12-08 21:53:00
2:53 PM,64.9,16.0,15,30.06,10.0,East,3.5,-,N/A,,Clear,90,2011-12-08 22:53:00
3:53 PM,64.0,16.0,16,30.06,10.0,East,3.5,-,N/A,,Clear,100,2011-12-08 23:53:00
4:53 PM,59.0,24.1,26,30.06,10.0,Calm,Calm,-,N/A,,Clear,0,2011-12-09 00:53:00
5:53 PM,55.0,25.0,31,30.08,10.0,NNW,3.5,-,N/A,,Clear,330,2011-12-09 01:53:00
6:53 PM,53.1,19.9,27,30.10,10.0,NW,5.8,-,N/A,,Clear,320,2011-12-09 02:53:00
7:53 PM,50.0,18.0,28,30.12,10.0,NW,5.8,-,N/A,,Clear,310,2011-12-09 03:53:00
8:53 PM,48.0,21.9,36,30.12,10.0,NW,6.9,-,N/A,,Clear,320,2011-12-09 04:53:00
9:53 PM,46.9,21.9,37,30.13,10.0,NNW,6.9,-,N/A,,Clear,340,2011-12-09 05:53:00
10:53 PM,45.0,19.0,36,30.14,10.0,Calm,Calm,-,N/A,,Clear,0,2011-12-09 06:53:00
11:53 PM,45.0,19.9,37,30.14,10.0,NW,6.9,-,N/A,,Clear,320,2011-12-09 07:53:00